This is the latest recevied weather packets stored in our database for station/object WE8M. If no packets are shown the sender has not sent any weather packets the latest 10 day(s).
| Time | Temp. | Humidity | Pressure | Rain* | Wind** | Luminosity | Snow |
|---|---|---|---|---|---|---|---|
| 1777522944 | 11.11° C | 75% | 1014 hPa | 0 mm | - | - | - |
| 1777522642 | 11.11° C | 75% | 1014.1 hPa | 0 mm | - | - | - |
| 1777522338 | 11.11° C | 75% | 1013.9 hPa | 0 mm | - | - | - |
| 1777522035 | 11.67° C | 75% | 1014.2 hPa | 0 mm | - | - | - |
| 1777521731 | 11.67° C | 74% | 1013.9 hPa | 0 mm | - | - | - |
| 1777521428 | 11.67° C | 74% | 1014 hPa | 0 mm | - | - | - |
| 1777521125 | 11.67° C | 74% | 1013.9 hPa | 0 mm | - | - | - |
| 1777520823 | 11.67° C | 74% | 1013.9 hPa | 0 mm | - | - | - |
| 1777520520 | 11.67° C | 74% | 1014 hPa | 0 mm | - | - | - |
| 1777520216 | 11.11° C | 74% | 1013.9 hPa | 0 mm | - | - | - |
| 1777519914 | 11.67° C | 75% | 1013.9 hPa | 0 mm | - | - | - |
| 1777519611 | 11.67° C | 75% | 1013.6 hPa | 0 mm | - | - | - |
| 1777519307 | 11.67° C | 76% | 1013.6 hPa | 0 mm | - | - | - |
| 1777519004 | 11.11° C | 76% | 1013.9 hPa | 0 mm | - | - | - |
| 1777518700 | 11.11° C | 78% | 1013.8 hPa | 0 mm | - | - | - |
| 1777518397 | 11.11° C | 76% | 1013.7 hPa | 0 mm | - | - | - |
| 1777518092 | 11.11° C | 76% | 1013.6 hPa | 0 mm | - | - | - |
| 1777517789 | 11.67° C | 76% | 1013.7 hPa | 0 mm | - | - | - |
| 1777517485 | 11.67° C | 76% | 1013.7 hPa | 0 mm | - | - | - |
| 1777517183 | 11.67° C | 73% | 1013.7 hPa | 0 mm | - | - | - |
| 1777516881 | 12.22° C | 73% | 1013.5 hPa | 0 mm | - | - | - |
| 1777516578 | 12.22° C | 73% | 1013.5 hPa | 0 mm | - | - | - |
| 1777516274 | 12.22° C | 73% | 1013.5 hPa | 0 mm | - | - | - |
| 1777515970 | 12.22° C | 72% | 1013.4 hPa | 0 mm | - | - | - |
| 1777515667 | 12.22° C | 72% | 1013.3 hPa | 0 mm | - | - | - |
* Rain latest hour (hover to see other rain measurements)
** Current wind speed in m/s (hover to see current wind gust speed)